EW5186 Weather Reports


time (UTC)temp
F
wind
direction
speed
knots
gust
knots
rain 1hr
in
rain 24hr
in
rain mn
in
humidity
%
barometer
mb
20260506221608 56 155 0.0 2.6 0.00 0.13 0.13 94 1008.3
20260506220056 56 129 0.0 2.6 0.00 0.13 0.13 94 1008.3
20260506214549 56 172 0.0 2.6 0.00 0.13 0.13 93 1008.2
20260506213058 56 332 0.0 3.5 0.01 0.13 0.13 93 1008.2
20260506211546 57 238 0.0 3.5 0.02 0.13 0.13 93 1008.1
20260506210042 57 114 0.0 4.3 0.03 0.13 0.13 93 1008.2
20260506204540 57 141 0.0 6.1 0.03 0.13 0.13 93 1008.4
20260506203037 57 174 0.0 2.6 0.02 0.12 0.12 93 1008.7
20260506201541 58 178 0.0 1.7 0.01 0.11 0.11 92 1008.7
20260506200135 58 162 0.0 7.0 0.00 0.10 0.10 92 1008.7
20260506194516 58 121 0.9 5.2 0.00 0.10 0.10 92 1008.8
20260506193015 59 121 0.0 6.1 0.01 0.10 0.10 92 1009.0
20260506191556 58 25 0.9 6.1 0.03 0.10 0.10 92 1009.3
20260506190056 58 245 0.9 6.1 0.03 0.10 0.10 92 1009.5
20260506184546 58 268 0.0 4.3 0.04 0.10 0.10 92 1009.8
20260506183050 58 150 0.9 4.3 0.05 0.09 0.09 92 1009.9
20260506181519 58 181 0.9 5.2 0.06 0.07 0.07 91 1010.0
20260506180118 58 206 0.0 7.0 0.07 0.07 0.07 90 1009.8
20260506174614 58 150 0.9 5.2 0.06 0.06 0.06 90 1010.0
20260506173101 59 152 0.9 3.5 0.04 0.04 0.04 89 1010.4
20260506171553 59 141 0.0 4.3 0.01 0.01 0.01 87 1010.6
20260506170041 60 254 0.0 3.5 0.00 0.00 0.00 84 1010.9
20260506164540 61 158 0.0 4.3 0.00 0.00 0.00 82 1011.0
20260506163040 62 261 0.9 6.1 0.00 0.00 0.00 81 1011.1
20260506161537 63 104 1.7 6.1 0.00 0.00 0.00 80 1011.2
20260506160036 63 219 1.7 7.8 0.00 0.00 0.00 79 1011.3
20260506154535 63 75 2.6 7.0 0.00 0.00 0.00 79 1011.4
20260506153045 63 180 2.6 6.1 0.00 0.00 0.00 78 1011.5
20260506151536 63 42 0.0 7.0 0.00 0.00 0.00 79 1011.2
20260506150015 64 136 0.9 8.7 0.00 0.00 0.00 79 1011.3
20260506144516 64 139 1.7 8.7 0.00 0.00 0.00 77 1011.4
20260506143056 65 77 1.7 5.2 0.00 0.00 0.00 77 1011.5
20260506141555 66 77 2.6 6.1 0.00 0.00 0.00 76 1011.4
20260506140037 65 75 0.9 7.0 0.00 0.00 0.00 77 1011.7
20260506134534 65 178 0.9 7.0 0.00 0.00 0.00 78 1011.6
20260506133014 64 226 2.6 7.0 0.00 0.00 0.00 78 1011.4
20260506131521 63 266 1.7 8.7 0.00 0.00 0.00 80 1011.4
20260506124556 62 179 1.7 7.8 0.00 0.00 0.00 81 1011.7
20260506123056 62 120 1.7 7.0 0.00 0.00 0.00 80 1012.2
20260506121555 62 101 0.9 7.0 0.00 0.00 0.00 83 1012.1
20260506120050 60 69 0.9 6.1 0.00 0.00 0.00 85 1012.1
20260506114550 59 98 1.7 5.2 0.00 0.00 0.00 85 1012.1
20260506113048 58 70 0.0 6.1 0.00 0.00 0.00 87 1012.0
20260506111548 58 171 0.0 2.6 0.00 0.00 0.00 87 1012.2
20260506110035 57 182 0.9 3.5 0.00 0.00 0.00 89 1012.3
20260506104535 56 77 0.0 4.3 0.00 0.00 0.00 90 1012.1
20260506103033 55 100 0.0 2.6 0.00 0.00 0.00 90 1012.2
20260506101532 55 234 0.0 4.3 0.00 0.00 0.00 91 1012.0
20260506100036 55 250 0.0 5.2 0.00 0.00 0.00 90 1011.9
20260506094530 55 141 0.0 3.5 0.00 0.00 0.00 89 1011.9
20260506093029 55 48 0.0 4.3 0.00 0.00 0.00 89 1011.9
20260506091527 55 174 0.0 3.5 0.00 0.00 0.00 89 1012.0
20260506090021 56 134 0.0 4.3 0.00 0.00 0.00 88 1012.1
20260506084513 56 154 0.9 4.3 0.00 0.00 0.00 88 1012.1
20260506083012 56 127 0.0 4.3 0.00 0.00 0.00 88 1012.2
20260506081510 56 129 0.9 3.5 0.00 0.00 0.00 88 1012.2
20260506073007 56 252 0.0 4.3 0.00 0.00 0.00 86 1012.3
20260506071505 56 99 0.0 1.7 0.00 0.00 0.00 86 1012.4
20260506061525 58 163 1.7 6.1 0.00 0.00 0.00 84 1012.3
20260506044600 59 129 0.9 6.1 0.00 0.00 0.00 81 1012.7
20260506043100 60 51 0.9 9.6 0.00 0.00 0.00 80 1012.8
20260506041558 60 87 0.9 7.8 0.00 0.00 0.00 80 1012.9
20260506040036 60 65 0.9 7.8 0.00 0.00 0.00 80 1012.8
20260506034545 60 67 2.6 10.4 0.00 0.00 0.00 80 1012.8
20260506033018 60 42 1.7 7.8 0.00 0.00 0.00 79 1012.9
20260506031518 60 110 0.9 7.0 0.00 0.00 0.00 78 1012.6
20260506030053 61 29 1.7 7.8 0.00 0.00 0.00 76 1012.8
20260506024612 61 214 2.6 9.6 0.00 0.00 0.00 75 1012.7
20260506023035 61 88 3.5 7.8 0.00 0.00 0.00 74 1012.8
20260506021534 62 130 1.7 10.4 0.00 0.00 0.00 74 1012.5
20260506020015 61 184 0.9 4.3 0.00 0.00 0.00 74 1012.5
20260506014515 61 108 1.7 7.0 0.00 0.00 0.00 74 1012.4
20260506013109 61 169 0.0 6.1 0.00 0.00 0.00 74 1012.2
20260506011656 61 169 2.6 7.0 0.00 0.00 0.00 74 1012.2
20260506010039 61 143 0.0 5.2 0.00 0.00 0.00 73 1011.9
20260506004538 61 40 1.7 7.0 0.00 0.00 0.00 73 1011.8
20260506003028 61 135 0.0 4.3 0.00 0.00 0.00 73 1011.6
20260506001526 62 171 2.6 8.7 0.00 0.00 0.00 71 1011.3
20260506000024 63 97 1.7 6.1 0.00 0.00 0.00 70 1011.2
20260505234532 63 126 2.6 7.8 0.00 0.00 0.00 69 1011.0
20260505233023 64 152 0.9 5.2 0.00 0.00 0.00 69 1010.9
20260505231523 65 233 0.9 7.8 0.00 0.00 0.00 68 1010.7
20260505230038 65 160 0.0 8.7 0.00 0.00 0.00 67 1010.4
20260505224522 66 77 1.7 8.7 0.00 0.00 0.00 66 1010.6
20260505223010 68 150 1.7 7.0 0.00 0.00 0.00 64 1010.6